{"data":{"norad_id":45383,"epoch":"2026-05-25T06:00:02.000160Z","epoch_age_seconds":64154,"freshness":"FRESH","line1":"1 45383U 20019Z   26145.25002315  .01228037  00000+0  12548-1 0  9994","line2":"2 45383  53.0439 124.7075 0001797  87.7130 285.5157 15.61624711  5883","mean_motion":15.61624711,"eccentricity":0.0001797,"inclination_deg":53.0439,"raan_deg":124.7075,"arg_perigee_deg":87.713,"mean_anomaly_deg":285.5157,"bstar":0.012548,"rev_number":588,"period_min":92.211655582594,"perigee_km":381.74855180211,"apogee_km":384.17849132956,"semimajor_km":6761.1005215658,"source":"CELESTRAK","updated_at":"2026-05-25T13:38:16.415590Z"}}